Hot Springs, VA

8:17 PM EST on November 22, 2019 (GMT -0500)
Ingalls

Weather History for KHSP - October, 2019

Change the Weather History Date:

Sunday, October 20, 2019

  Actual Average Record
Temperature  
Mean Temperature 50 °F -  
Max Temperature 59 °F 55 °F 73 °F (2016)
Min Temperature 43 °F 40 °F 28 °F (1996)
Degree Days  
Heating Degree Days 14    
Moisture  
Dew Point 52 °F    
Average Humidity 100    
Maximum Humidity 100    
Minimum Humidity 100    
Precipitation  
Precipitation 0.82 in - - ()
Sea Level Pressure  
Sea Level Pressure 29.95 in    
Wind  
Wind Speed 6 mph (North)    
Max Wind Speed 12 mph    
Max Gust Speed 17 mph    
Visibility 2 miles    
Events Fog , Rain    
Averages and records for this station are not official NWS values.
T = Trace of Precipitation, MM = Missing Value Source: NWS Daily Summary

Daily Weather History Graph

Daily Weather History Graph

Search for Another Location

Airport or City:

Astronomy

Oct. 20, 2019 Rise Set
Actual Time 7:32 AM EDT 6:35 PM EDT
Civil Twilight 7:05 AM EDT 7:01 PM EDT
Nautical Twilight 6:35 AM EDT 7:32 PM EDT
Astronomical Twilight 6:04 AM EDT 8:02 PM EDT
Moon 11:46 PM EDT (10/20) 1:54 PM EDT (10/20)
Length of Visible Light 11h 56m
Length of Day
11h 02m
Waning Gibbous, 59% of the Moon is Illuminated
Oct 20
Waning Gibbous
Oct 21
Last Quarter
Oct 27
New
Nov 4
First Quarter
Nov 12
Full

Hourly Weather History & Observations

Time (EDT) Temp. Windchill Dew Point Humidity Pressure Visibility Wind Dir Wind Speed Gust Speed Precip Events Conditions
12:15 AM 43.2 °F - 43.2 °F 100% 30.00 in 10.0 mi Calm Calm - 0.01 in Rain Light Rain
12:35 AM 43.0 °F - 43.0 °F 100% 29.98 in 7.0 mi Calm Calm - 0.04 in Rain Rain
12:55 AM 45.1 °F 41.4 °F 45.1 °F 100% 29.97 in 7.0 mi South 6.9 mph - 0.08 in Rain Rain
1:15 AM 45.5 °F 42.5 °F 45.5 °F 100% 29.97 in 10.0 mi South 5.8 mph - 0.02 in Rain Light Rain
1:35 AM 45.0 °F 41.2 °F 45.0 °F 100% 29.97 in 10.0 mi South 6.9 mph - 0.03 in Rain Rain
1:55 AM 46.4 °F 42.4 °F 46.4 °F 100% 29.96 in 5.0 mi South 8.1 mph - 0.07 in Rain Rain
2:15 AM 46.0 °F 41.4 °F 46.0 °F 100% 29.95 in 5.0 mi South 9.2 mph - 0.03 in Rain Light Rain
2:35 AM 45.7 °F 42.0 °F 45.7 °F 100% 29.95 in 5.0 mi SSE 6.9 mph - 0.05 in Rain Rain
2:55 AM 45.5 °F - 45.5 °F 100% 29.94 in 2.0 mi Calm Calm - 0.06 in Rain Light Rain
3:15 AM 45.5 °F - 45.5 °F 100% 29.93 in 0.2 mi Calm Calm - N/A Rain Light Rain
3:35 AM 45.1 °F - 45.1 °F 100% 29.93 in 0.5 mi Calm Calm - 0.02 in Rain Rain
3:55 AM 45.9 °F - 45.9 °F 100% 29.91 in 0.8 mi Calm Calm - 0.05 in Rain Rain
4:15 AM 46.0 °F - 46.0 °F 100% 29.91 in 3.0 mi Calm Calm - 0.06 in Rain Rain
4:35 AM 47.3 °F - 47.3 °F 100% 29.91 in 4.0 mi Calm Calm - 0.12 in Rain Light Rain
4:55 AM 47.5 °F - 47.5 °F 100% 29.91 in 0.2 mi ESE 6.9 mph - 0.15 in Rain Light Rain
5:15 AM 48.6 °F - 48.6 °F 100% 29.91 in 0.2 mi East 6.9 mph - 0.03 in Rain Rain
5:55 AM 48.4 °F - 48.4 °F 100% 29.90 in 0.2 mi East 8.1 mph - 0.12 in Rain Rain
6:15 AM 48.4 °F - 48.4 °F 100% 29.90 in 0.2 mi East 8.1 mph - 0.06 in Rain Rain
6:35 AM 47.8 °F - 47.8 °F 100% 29.90 in 0.2 mi East 8.1 mph - 0.11 in Rain Rain
6:55 AM 46.8 °F - 46.8 °F 100% 29.90 in 0.2 mi East 8.1 mph - 0.14 in Rain Rain
7:15 AM 47.3 °F - 47.3 °F 100% 29.90 in 0.2 mi ENE 9.2 mph - 0.02 in Rain Rain
7:35 AM 47.7 °F - 47.7 °F 100% 29.90 in 0.2 mi ENE 9.2 mph - 0.05 in Rain Rain
7:55 AM 48.2 °F - 48.2 °F 100% 29.90 in 0.2 mi ENE 11.5 mph - 0.08 in Rain Rain
8:15 AM 48.2 °F - 48.2 °F 100% 29.91 in 0.2 mi ENE 10.4 mph - N/A Rain Heavy Rain
8:35 AM 48.4 °F - 48.4 °F 100% 29.91 in 0.2 mi ENE 10.4 mph - N/A Rain Heavy Rain
8:55 AM 48.6 °F - 48.6 °F 100% 29.91 in 0.2 mi ENE 9.2 mph - 0.01 in Rain Rain
9:15 AM 48.9 °F - 48.9 °F 100% 29.91 in 0.2 mi ENE 11.5 mph - N/A Rain Heavy Rain
9:35 AM 49.1 °F - 49.1 °F 100% 29.91 in 0.2 mi ENE 11.5 mph 16.1 mph 0.01 in Rain Heavy Rain
10:15 AM 50.0 °F - 50.0 °F 100% 29.91 in 0.2 mi ENE 11.5 mph 17.3 mph N/A   Heavy Drizzle
10:35 AM 50.2 °F - 50.2 °F 100% 29.91 in 0.2 mi ENE 10.4 mph 16.1 mph N/A   Heavy Drizzle
10:55 AM 50.5 °F - 50.5 °F 100% 29.92 in 0.2 mi ENE 6.9 mph 16.1 mph 0.02 in   Heavy Drizzle
11:15 AM 51.8 °F - 51.8 °F 100% 29.93 in 0.2 mi NE 8.1 mph 16.1 mph 0.01 in   Drizzle
11:35 AM 52.3 °F - 52.3 °F 100% 29.93 in 0.2 mi NE 9.2 mph - 0.02 in   Drizzle
11:55 AM 53.6 °F - 53.6 °F 100% 29.93 in 0.5 mi ENE 8.1 mph - 0.02 in Rain Rain
12:15 PM 54.3 °F - 54.3 °F 100% 29.93 in 0.8 mi NNE 5.8 mph - N/A   Light Drizzle
12:35 PM 54.5 °F - 54.5 °F 100% 29.92 in 0.2 mi NNE 6.9 mph - N/A   Light Drizzle
12:55 PM 54.5 °F - 54.5 °F 100% 29.93 in 0.2 mi NNW 9.2 mph - 0.01 in   Light Drizzle
1:15 PM 52.9 °F - 52.9 °F 100% 29.93 in 0.2 mi NW 9.2 mph - N/A   Light Drizzle
1:35 PM 52.7 °F - 52.7 °F 100% 29.93 in 0.2 mi NW 8.1 mph - N/A   Drizzle
1:55 PM 53.2 °F - 53.2 °F 100% 29.93 in 0.2 mi NW 6.9 mph - N/A   Light Drizzle
2:15 PM 53.6 °F - 53.6 °F 100% 29.93 in 0.2 mi NNW 9.2 mph - N/A   Drizzle
2:35 PM 54.1 °F - 54.1 °F 100% 29.93 in 0.2 mi NNW 9.2 mph - N/A   Light Drizzle
2:55 PM 55.0 °F - 55.0 °F 100% 29.93 in 0.5 mi NNW 8.1 mph - N/A Fog Fog
3:15 PM 56.3 °F - 56.3 °F 100% 29.93 in 7.0 mi NNW 9.2 mph - N/A   Overcast
3:35 PM 56.7 °F - 56.7 °F 100% 29.93 in 10.0 mi North 9.2 mph - N/A   Overcast
3:55 PM 58.1 °F - 58.1 °F 100% 29.93 in 10.0 mi NNE 4.6 mph - N/A   Overcast
4:15 PM 58.6 °F - 58.6 °F 100% 29.94 in 10.0 mi North 9.2 mph - N/A   Mostly Cloudy
4:35 PM 56.8 °F - 56.8 °F 100% 29.94 in 0.2 mi WNW 5.8 mph - N/A Fog Fog
4:55 PM 57.2 °F - 57.2 °F 100% 29.94 in 7.0 mi NNW 6.9 mph - N/A   Overcast
5:15 PM 57.0 °F - 57.0 °F 100% 29.95 in 10.0 mi WNW 8.1 mph - N/A   Overcast
5:35 PM 57.0 °F - 57.0 °F 100% 29.95 in 0.2 mi WNW 4.6 mph - N/A Fog Fog
5:55 PM 56.8 °F - 56.8 °F 100% 29.95 in 10.0 mi NW 6.9 mph - N/A   Mostly Cloudy
6:15 PM 56.8 °F - 56.8 °F 100% 29.96 in 0.2 mi WNW 8.1 mph - N/A Fog Fog
6:35 PM 56.8 °F - 56.8 °F 100% 29.96 in 0.2 mi WNW 3.5 mph - N/A Fog Fog
6:55 PM 56.8 °F - 56.8 °F 100% 29.98 in 0.2 mi WNW 4.6 mph - N/A Fog Fog
7:15 PM 56.8 °F - 56.8 °F 100% 29.99 in 0.2 mi Calm Calm - N/A Fog Fog
7:35 PM 56.7 °F - 56.7 °F 100% 29.99 in 0.2 mi Calm Calm - N/A Fog Fog
7:55 PM 56.7 °F - 56.7 °F 100% 30.00 in 0.2 mi WNW 5.8 mph - N/A Fog Fog
8:15 PM 56.3 °F - 56.3 °F 100% 30.00 in 0.2 mi WNW 8.1 mph - N/A Fog Fog
8:35 PM 55.8 °F - 55.8 °F 100% 30.00 in 0.2 mi NW 10.4 mph 17.3 mph N/A Fog Fog
8:55 PM 55.4 °F - 55.4 °F 100% 30.01 in 0.2 mi NW 8.1 mph - N/A Fog Fog
9:15 PM 55.0 °F - 55.0 °F 100% 30.01 in 0.2 mi NW 6.9 mph - N/A Fog Fog
9:35 PM 54.7 °F - 54.7 °F 100% 30.02 in 0.2 mi NW 6.9 mph - N/A Fog Fog
9:55 PM 54.5 °F - 54.5 °F 100% 30.03 in 0.2 mi Calm Calm - N/A Fog Fog
10:15 PM 54.5 °F - 54.5 °F 100% 30.04 in 0.2 mi Calm Calm - N/A Fog Fog
10:35 PM 54.0 °F - 54.0 °F 100% 30.05 in 0.2 mi Calm Calm - N/A Fog Fog
10:55 PM 53.6 °F - 53.6 °F 100% 30.05 in 0.5 mi West 10.4 mph - N/A Fog Fog
11:15 PM 53.1 °F - 53.1 °F 100% 30.06 in 0.2 mi West 6.9 mph - N/A Fog Fog
11:35 PM 52.7 °F - 52.7 °F 100% 30.06 in 0.8 mi WNW 9.2 mph - N/A   Overcast
11:55 PM 51.6 °F - 51.6 °F 100% 30.06 in 10.0 mi WNW 9.2 mph - N/A   Mostly Cloudy